ST-2

Last updated on Sept. 28, 2020, 5:45 a.m. UTC

1 37606U 11022B   20271.79142734 -.00000234  00000-0  00000-0 0  9997
2 37606   0.0165 176.7845 0001738  13.9785 189.1899  1.00273227 34338
UTC
Height (km)
Latitude
Longitude
Inclination
Orbital Period
UTC large
Height (km)
Speed (km/s)
/
Latitude / Longitude
Inclination (degrees)
Orbital Period (minutes)
Azimuth
Elevation
Range (km)
Doppler Factor
iOS Compass Heading
iOS Angle

Next 30 passes for location: Hong Kong

Rise time Rise Azimuth (degrees) Set time Set Azimuth (degrees) Duration Max altitude (degrees)

No matching passes for this satellites